Weather in Zalazna

Russia / Kirov Oblast     58°39′43″N   52°30′09″E
temp.,
°C
wind,
m/s
gust,
m/s
humid.,
%
clouds,
%
prec.,
mm/h
press.,
hPa
HPBL,
m
17 april, sat
sat1700:000ne22802 0.0 103011
03:000n11795 0.0 103110
06:00+2nnw24735 0.0 1030121
09:00+7nnw24555 0.0 10291105
12:00+9nnw24495 0.0 10281441
15:00+10nnw34475 0.0 10271558
18:00+7nw23665 0.0 102562
21:00+4nw27805 0.0 1025136
18 april, sun
sun1800:00+2nw210874 0.0 1024209
03:00+1nw210925 0.0 1024262
06:00+3nne5882100 0.0 1025974
09:00+2ne57470 0.0 10281117
12:00+4ne57405 0.0 10291595
15:00+4ne573869 0.0 10301861
18:00+2ene48485 0.0 1032802
21:00−1ene310614 0.0 1034439
19 april, mon
mon1900:00−2ene39650 0.0 1035395
03:00−2ene38650 0.0 1036343
06:00−1ene37580 0.0 1037498
09:00+2ene35405 0.0 10371358
12:00+4ene34320 0.0 10361532
15:00+5ene34300 0.0 10361522
18:00+2ene23460 0.0 103665
21:00−1e23590 0.0 103757
20 april, tue
tue2000:00−1ese11580 0.0 103715
03:00−2ese11560 0.0 103810
06:00+1e00470 0.0 1038131
09:00+5nne11310 0.0 1037848
12:00+8w11285 0.0 10361191
15:00+9nw11270 0.0 10341233
18:00+6n11401 0.0 103310
21:00+3e11490 0.0 103410
21 april, wed
wed2100:00+1se11570 0.0 103410
03:000se11610 0.0 103410
06:00+3se23550 0.0 1034125
09:00+8se34379 0.0 1033774
12:00+11sse453336 0.0 10321307
15:00+12sse473324 0.0 10301361
18:00+9sse49455 0.0 1029426
21:00+6sse4135995 0.0 1030442